Skip Page Navigation
NASA JPL Caltech
NASA Logo - Jet Propulsion Laboratory + View the NASA Portal
+ Center for Near-Earth Object Studies
JPL Home Earth Solar System Stars & Galaxies Technology
JPL Solar System Dynamics
BODIES ORBITS EPHEMERIDES TOOLS PHYSICAL DATA DISCOVERY FAQ SITE MAP
JPL Small-Body Database Browser
Search: [ help ]  
193548 (2000 YD121)
Classification: Main-belt Asteroid          SPK-ID: 2193548
Ephemeris | Orbit Diagram | Orbital Elements | Mission Design | Physical Parameters | Discovery Circumstances | Close-Approach Data ]

[ hide orbit diagram ]

For accurate long-term ephemerides, please instead use our Horizons system.This orbit viewer was implemented using two-body methods, and hence should not be used for determining accurate long-term trajectories (over several years or decades) or planetary encounter circumstances.


[ revert to old Java-based viewer ]

Orbital Elements at Epoch 2459000.5 (2020-May-31.0) TDB
Reference: JPL 15 (heliocentric ecliptic J2000)
 Element Value Uncertainty (1-sigma)   Units 
e .2851632742236985 6.4054e-08  
a 2.658060378778837 1.4785e-08 au
q 1.90007917808198 1.7405e-07 au
i 3.21351009027775 6.2628e-06 deg
node 245.0821462469452 0.00017073 deg
peri 169.9372600657133 0.00017165 deg
M 192.8933921373127 1.7352e-05 deg
tp 2459735.245292710075
(2022-Jun-04.74529271)
7.9422e-05 TDB
period 1582.871609679106
4.33
1.3207e-05
3.616e-08
d
yr
n .2274347444218691 1.8976e-09 deg/d
Q 3.416041579475695 1.9001e-08 au
  Orbit Determination Parameters
   # obs. used (total)      350  
   data-arc span      10087 days (27.62 yr)  
   first obs. used      1991-09-12  
   last obs. used      2019-04-25  
   planetary ephem.      DE431  
   SB-pert. ephem.      SB431-N16  
   condition code      0  
   norm. resid. RMS      .55644  
   source      ORB  
   producer      Otto Matic  
   solution date      2020-Feb-24 22:05:03  

Additional Information
 Earth MOID = .911859 au 
 Jupiter MOID = 1.95942 au 
 T_jup = 3.326 
[ show covariance matrix ]

Ephemeris | Orbit Diagram | Orbital Elements | Mission Design | Physical Parameters | Discovery Circumstances | Close-Approach Data ]

Physical Parameter Table
Parameter Symbol Value Units Sigma Reference Notes
absolute magnitude H 16.3   n/a MPO436957  

193548 (2000 YD121)          Discovered 2000-Dec-21 by LINEAR at Socorro
Reference: 20081113/Numbers.arcLast Updated: 2008-11-17

[ hide close-approach data ]
Close-Approach Data   ...sorted by Date/Time (TDB)
Date/Time (TDB) Time Uncertainty
(days_HH:MM)
Body Nominal Distance (au) Minimum Distance (au) Maximum Distance (au) V-relative (km/s) V-infinity (km/s) JD (TDB) Time Uncertainty (minutes) Semi-major axis (km) Semi-minor axis (km) range-LOV angle (deg) N-sigma BP Orbit Ref. Reference Modified
1911-Dec-19 06:34 00:03 Jupiter 1.95774034734555 1.95773977724701 1.95774091744354 1.37226616925579 1.0088647837558 2419389.773493644 2.58860136736977 396.351251241774 116.598335797424 42.0792011311966 1717598.21966857 T 15 CATAB v2.0f-lin.ifort 2020-Feb-24 22:05:18 2020-Feb-24 22:05
1959-Nov-03 22:12 00:01 Jupiter 1.95978312301912 1.95978271102369 1.95978353501566 1.47716303425911 1.14787032914258 2436876.424741861 1.46806671241151 280.441172090285 88.8168474104397 57.3595777104115 2173156.59147927 T 15 CATAB v2.0f-lin.ifort 2020-Feb-24 22:05:18 2020-Feb-24 22:05
2089-Jul-30 10:07 00:02 Jupiter 1.99924354131583 1.99924274941437 1.99924433321649 1.40060525576209 1.05562875892602 2484262.921478527 1.72731055000161 334.482343959345 104.092334554805 33.2551339125152 1479584.05465674 T 15 CATAB v2.0f-lin.ifort 2020-Feb-24 22:05:18 2020-Feb-24 22:05
2137-Jun-15 20:31 00:03 Jupiter 1.95388601527994 1.95388549901528 1.95388653154416 1.40037932600078 1.04596798391963 2501749.354518585 2.85005568039437 393.066672098443 115.197111963846 51.0458301412695 1804491.78610985 T 15 CATAB v2.0f-lin.ifort 2020-Feb-24 22:05:18 2020-Feb-24 22:05
2185-Apr-30 14:46 00:04 Jupiter 1.95283808245159 1.95283751238104 1.95283865253236 1.47747397146862 1.14693105548688 2519235.115296918 4.01275787402721 401.397990435412 98.5090244847087 62.8765986310661 2044582.86541952 T 15 CATAB v2.0f-lin.ifort 2020-Feb-24 22:05:18 2020-Feb-24 22:05

Alternate Designations
 2000 YD121 = 1991 RF3 
Ephemeris | Orbit Diagram | Orbital Elements | Mission Design | Physical Parameters | Discovery Circumstances | Close-Approach Data ]
ABOUT SSD CREDITS/AWARDS PRIVACY/COPYRIGHT GLOSSARY LINKS
FirstGov 2020-Aug-07 11:03 UT
(server date/time)  
NASA Home Page
Site Manager:   Ryan S. Park
Webmaster  Alan B. Chamberlin